Flag for Vietnam Weather past 2 weeks in Hanoi, Vietnam

Now
81 °F

Broken clouds.


Feels Like: 86 °F
Forecast: 75 / 86 °F
Wind: 10 mph from East

Location: Ha Noi Airport

Current Time: Aug 4, 2015 at 3:33:50 PM

Latest Report: Aug 4, 2015 at 3:00 PM


Visibility: N/A

Pressure: 29.71 "Hg

Humidity: 84%

Dew point: 75 °F

Location of HanoiLocation

Historic Weather in Hanoi — Graph

°F

Hanoi temperature yesterday

Maximum temperature yesterday: 81 °F (at 1:00 PM)
Minimum temperature yesterday: 75 °F (at 12:30 AM)
Average temperature yesterday: 77 °F

Past Weeks' High & Low Weather Summary

 TemperatureHumidityPressure
High97 °F (Jul 22, 4:30 PM)100% (Aug 1, 12:00 PM)29.83 "Hg (Aug 1, 12:00 PM)
Low73 °F (Aug 1, 12:00 PM)49% (Jul 23, 6:00 PM)29.56 "Hg (Jul 20, 4:00 PM)
Average81 °F84%29.69 "Hg
* Reported Jul 20 2:00 PM — Aug 4 2:30 PM, Hanoi, Weather by CustomWeather, © 2015

Note: Actual official high and low records may vary slightly from our data, if they occured in-between our weather recording intervals... More about our weather records

Advertising

Hanoi weather history for previous 24 hours

 ConditionsComfort  
Time TempWeatherWind HumidityBarometerVisibility
2:30 PM
Tue, Aug 4
82 °FBroken clouds.10 mph79%29.74 "HgN/A
2:00 PM79 °FSprinkles. Broken clouds.9 mph89%29.74 "HgN/A
1:30 PM81 °FBroken clouds.10 mph84%29.74 "HgN/A
1:00 PM79 °FLight rain. Broken clouds.9 mph89%29.77 "HgN/A
12:30 PM79 °FLight rain. Broken clouds.12 mph94%29.77 "HgN/A
12:00 PM77 °FRain. Broken clouds.9 mph94%29.77 "Hg4 mi
11:30 AM77 °FRain. Broken clouds.9 mph94%29.77 "Hg5 mi
11:00 AM77 °FRain. Broken clouds.10 mph94%29.77 "Hg5 mi
10:30 AM77 °FRain. Broken clouds.9 mph94%29.80 "Hg3 mi
10:00 AM79 °FRain. Broken clouds.10 mph89%29.80 "Hg3 mi
9:30 AM79 °FRain. Broken clouds.12 mph89%29.77 "Hg6 mi
9:00 AM79 °FLight rain. Broken clouds.12 mph89%29.77 "HgN/A
8:30 AM77 °FBroken clouds.10 mph94%29.80 "HgN/A
8:00 AM77 °FLight rain. Broken clouds.12 mph94%29.77 "HgN/A
7:30 AM77 °FBroken clouds.12 mph94%29.77 "Hg4 mi
7:00 AM77 °FLight rain. Broken clouds.10 mph94%29.77 "Hg3 mi
6:30 AM77 °FBroken clouds.9 mph94%29.77 "Hg4 mi
6:00 AM75 °FLight rain. Broken clouds.8 mph100%29.77 "Hg2 mi
5:30 AM75 °FLight rain. Passing clouds.7 mph94%29.77 "Hg5 mi
5:00 AM75 °FLight rain. Partly cloudy.9 mph100%29.77 "Hg4 mi
4:30 AM75 °FLight rain. Partly cloudy.6 mph100%29.74 "Hg5 mi
4:00 AM75 °FLight rain. Partly cloudy.5 mph94%29.74 "Hg6 mi
3:30 AM75 °FLight rain. Partly cloudy.5 mph100%29.74 "Hg4 mi
3:00 AM75 °FLight rain. Partly cloudy.6 mph94%29.74 "HgN/A
2:30 AM75 °FLight rain. Partly cloudy.6 mph94%29.77 "HgN/A
2:00 AM77 °FRain. Partly cloudy.3 mph94%29.77 "Hg2 mi
1:30 AM77 °FLight rain. Fog.3 mph94%29.77 "Hg3 mi
1:00 AM77 °FLight rain. Partly cloudy.5 mph94%29.77 "Hg4 mi
12:30 AM77 °FRain. Partly cloudy.7 mph94%29.80 "Hg3 mi
12:00 AM77 °FPartly cloudy.7 mph94%29.80 "HgN/A
11:30 PM
Mon, Aug 3
77 °FPartly cloudy.8 mph94%29.80 "HgN/A
11:00 PM77 °FPartly cloudy.7 mph94%29.80 "HgN/A
10:30 PM77 °FPartly cloudy.7 mph94%29.80 "HgN/A
10:00 PM77 °FPartly cloudy.8 mph94%29.80 "HgN/A
9:30 PM77 °FPartly cloudy.7 mph94%29.80 "HgN/A
9:00 PM77 °FLight rain. Partly cloudy.8 mph94%29.80 "HgN/A
8:30 PM77 °FPartly cloudy.7 mph94%29.80 "HgN/A
8:00 PM77 °FPartly cloudy.8 mph94%29.77 "HgN/A
7:30 PM77 °FPartly cloudy.8 mph94%29.77 "HgN/A
7:00 PM79 °FPartly cloudy.7 mph89%29.77 "HgN/A
6:30 PM79 °FBroken clouds.9 mph89%29.77 "HgN/A
6:00 PM79 °FBroken clouds.10 mph89%29.74 "HgN/A
5:30 PM79 °FBroken clouds.12 mph89%29.74 "HgN/A
4:30 PM79 °FLight rain. Broken clouds.13 mph89%29.74 "HgN/A
4:00 PM79 °FLight rain. Broken clouds.14 mph89%29.77 "HgN/A
3:30 PM81 °FPartly sunny.15 mph84%29.77 "HgN/A
3:00 PM81 °FBroken clouds.14 mph84%29.77 "HgN/A
Weather by CustomWeather, © 2015

See weather overviewHow to use our weather pages